This is the latest recevied weather packets stored in our database for station/object KU9TRY. If no packets are shown the sender has not sent any weather packets the latest 10 day(s).
| Time | Temp. | Humidity | Pressure | Rain* | Wind** | Luminosity | Snow |
|---|---|---|---|---|---|---|---|
| 1778284256 | 18.89° C | 44% | 1011.9 hPa | 0 mm | - | 19 W/m² | - |
| 1778283954 | 19.44° C | 45% | 1012 hPa | 0 mm | - | 20 W/m² | - |
| 1778283650 | 19.44° C | 43% | 1012 hPa | 0 mm | - | 22 W/m² | - |
| 1778283350 | 19.44° C | 43% | 1012 hPa | 0 mm | - | 23 W/m² | - |
| 1778283047 | 19.44° C | 44% | 1011.9 hPa | 0 mm | - | 24 W/m² | - |
| 1778282743 | 19.44° C | 43% | 1012.1 hPa | 0 mm | - | 25 W/m² | - |
| 1778282441 | 19.44° C | 40% | 1012.1 hPa | 0 mm | - | 26 W/m² | - |
| 1778282138 | 19.44° C | 41% | 1012 hPa | 0 mm | - | 27 W/m² | - |
| 1778281835 | 19.44° C | 43% | 1012.2 hPa | 0 mm | - | 26 W/m² | - |
| 1778281531 | 20° C | 41% | 1012 hPa | 0 mm | - | 27 W/m² | - |
| 1778281228 | 20° C | 41% | 1012.1 hPa | 0 mm | - | 27 W/m² | - |
| 1778280926 | 20° C | 37% | 1011.9 hPa | 0 mm | - | 28 W/m² | - |
| 1778280622 | 20° C | 37% | 1012 hPa | 0 mm | - | 28 W/m² | - |
| 1778280320 | 20° C | 37% | 1012 hPa | 0 mm | - | 28 W/m² | - |
| 1778280017 | 20° C | 41% | 1012.1 hPa | 0 mm | - | 29 W/m² | - |
| 1778279715 | 20° C | 36% | 1012.1 hPa | 0 mm | - | 29 W/m² | - |
| 1778279412 | 20.56° C | 40% | 1012 hPa | 0 mm | - | 30 W/m² | - |
| 1778279109 | 20.56° C | 36% | 1012.2 hPa | 0 mm | - | 30 W/m² | - |
| 1778278805 | 21.11° C | 35% | 1012.2 hPa | 0 mm | - | 31 W/m² | - |
| 1778278502 | 21.11° C | 30% | 1012.2 hPa | 0 mm | - | 32 W/m² | - |
| 1778278198 | 21.11° C | 33% | 1012.4 hPa | 0 mm | - | 33 W/m² | - |
| 1778277895 | 20.56° C | 35% | 1012.4 hPa | 0 mm | - | 34 W/m² | - |
| 1778277591 | 20.56° C | 38% | 1012.5 hPa | 0 mm | - | 34 W/m² | - |
| 1778277288 | 21.11° C | 38% | 1012.4 hPa | 0 mm | - | 36 W/m² | - |
| 1778276984 | 21.67° C | 35% | 1012.6 hPa | 0 mm | - | 37 W/m² | - |
* Rain latest hour (hover to see other rain measurements)
** Current wind speed in m/s (hover to see current wind gust speed)